Weather observations for the past three days for
Omaha, Millard Airport
Metric (Imperial)
Date Time (cdt) Wind (kph) Vis. (km) Weather Sky Cond. Temperature (ºC) Relative Humidity Wind Chill (°C) Heat Index (°C) Pressure Precipitation (cm)
Air Dwpt 6 hour altimeter (cm) sea level (mb) 1 hr 3 hr 6 hr
Max. Min.
01 14:15 S 11 16.09 Fair CLR 0 0 0% 75.95 0.0
01 13:55 SE 13 16.09 Fair CLR 0 0 0% 75.97 0.0
01 13:35 SE 15 16.09 Fair CLR 0 0 0% 75.97 0.0
01 13:15 S 9 16.09 Fair CLR 0 0 0% 76 0.0
01 12:55 S 7 16.09 Fair CLR 0 0 0% 76 0.0
01 12:35 S 9 16.09 Fair CLR 0 0 0% 76.02 0.0
01 12:15 S 9 16.09 Fair CLR 0 0 0% 76.02 0.0
01 11:55 S 11 16.09 Fair CLR 0 0 0% 76.02 0.0
01 11:35 SE 13 16.09 Fair CLR 0 0 0% 76.05 0.0
01 11:15 S 7 16.09 Fair CLR 0 0 0% 76.05 0.0
01 10:55 S 11 16.09 Fair CLR 0 0 0% 76.05 0.0
01 10:35 SW 7 16.09 Fair CLR 0 0 0% 76.02 0.0
01 10:15 SW 7 16.09 Fair CLR 0 0 0% 76.02 0.0
01 09:55 SW 7 16.09 Fair CLR 0 0 0% 76.05 0.0
01 09:35 S 6 16.09 Fair CLR 0 0 0% 76.05 0.0
01 09:15 SE 7 16.09 Fair CLR 0 0 0% 76.07 0.0
01 08:55 SE 7 16.09 Fair CLR 0 0 0% 76.05 0.0
01 08:35 SE 11 16.09 Fair CLR 0 0 0% 76.05 0.0
01 08:15 SE 9 16.09 Fair CLR 0 0 0% 76.07 0.0
01 07:55 SE 9 16.09 Fair CLR 0 0 0% 76.05 0.0
01 07:35 SE 9 16.09 Fair CLR 0 0 0% 76.05 0.0
01 07:15 SE 9 16.09 Fair CLR 0 0 0% 76.02 0.0
01 06:55 SE 7 16.09 Fair CLR 0 0 0% 76 0.0
01 06:35 SE 6 16.09 Fair CLR 0 0 0% 76.02 0.0
01 06:15 SE 7 16.09 Fair CLR 0 0 0% 76.02 0.0
01 05:55 SE 6 16.09 Partly Cloudy SCT110 23.7 21.5 88% 76.02 0.0
01 05:35 SE 6 16.09 Partly Cloudy SCT110 23.9 21.8 88% 24 76.02 0.0
01 05:15 SE 6 16.09 Partly Cloudy SCT120 0 0 0% 76.02 0.0
01 04:55 SE 7 16.09 Partly Cloudy SCT110 0 0 0% 76.02 0.0
01 04:35 SE 7 16.09 Mostly Cloudy BKN120 0 0 0% 76.05 0.0
01 04:15 SE 9 16.09 Overcast OVC110 0 0 0% 76.02 0.0
01 03:55 Calm 16.09 Overcast OVC110 0 0 0% 76.05 0.0
01 03:35 SE 6 16.09 Mostly Cloudy BKN110 0 0 0% 76.02 0.0
01 03:15 Calm 16.09 Mostly Cloudy BKN110 0 0 0% 76.02 0.0
01 02:55 Calm 16.09 Partly Cloudy SCT110 0 0 0% 76.05 0.0
01 02:35 Calm 16.09 Fair CLR 0 0 0% 76.02 0.0
01 02:15 Calm 16.09 Fair CLR 0 0 0% 76.05 0.0
01 01:55 Calm 16.09 Fair CLR 0 0 0% 76.05 0.0
01 01:35 Calm 16.09 Fair CLR 0 0 0% 76.05 0.0
01 01:15 Calm 16.09 Fair CLR 0 0 0% 76.05 0.0
01 00:55 Calm 16.09 Fair CLR 0 0 0% 76.05 0.0
01 00:35 Calm 16.09 Fair CLR 0 0 0% 76.07 0.0
01 00:15 Calm 16.09 Fair CLR 0 0 0% 76.07 0.0
31 23:55 Calm 16.09 Fair CLR 0 0 0% 76.07 0.0
31 23:35 Calm 16.09 Fair CLR 0 0 0% 76.07 0.0
31 23:15 Calm 16.09 Fair CLR 0 0 0% 76.07 0.0
31 22:55 Calm 16.09 Fair CLR 25.1 22.5 86% 26 76.07 0.0
31 22:35 Calm 16.09 Fair CLR 0 0 0% 76.05 0.0
31 22:15 Calm 16.09 Fair CLR 0 0 0% 76.05 0.0
31 21:55 Calm 16.09 Fair CLR 0 0 0% 76.02 0.0
31 21:35 Calm 16.09 Fair CLR 0 0 0% 76.02 0.0
31 20:55 Calm 16.09 Fair CLR 0 0 0% 76 0.0
31 20:35 Calm 16.09 Fair CLR 0 0 0% 75.97 0.0
31 20:15 Calm 16.09 Fair CLR 0 0 0% 75.97 0.0
31 19:55 Calm 16.09 Partly Cloudy SCT120 0 0 0% 76 0.0
31 19:35 Calm 16.09 Partly Cloudy SCT120 0 0 0% 76 0.0
31 19:15 Calm 16.09 Partly Cloudy SCT120 0 0 0% 76 0.0
31 18:35 Calm 16.09 Partly Cloudy SCT120 0 0 0% 76 0.0
31 18:15 Calm 16.09 Fair CLR 0 0 0% 76 0.0
31 17:55 Calm 16.09 Fair CLR 0 0 0% 76 0.0
31 17:35 Calm 16.09 Fair CLR 0 0 0% 76 0.0
31 17:15 W 7 16.09 Fair CLR 0 0 0% 76 0.0
31 16:55 SW 9 16.09 Fair CLR 0 0 0% 76.02 0.0
31 16:35 W 7 16.09 Fair CLR 0 0 0% 76.02 0.0
31 16:15 S 7 16.09 Fair CLR 0 0 0% 76.02 0.0
31 15:55 SW 9 16.09 Fair CLR 0 0 0% 76.02 0.0
31 15:35 S 9 16.09 Fair CLR 0 0 0% 76.02 0.0
31 15:15 SW 9 16.09 Fair CLR 0 0 0% 76.05 0.0
31 14:55 SW 9 16.09 Fair CLR 0 0 0% 76.05 0.0
31 14:35 W 13 16.09 Fair CLR 0 0 0% 76.05 0.0
31 14:15 W 7 16.09 Fair CLR 0 0 0% 76.05 0.0
31 13:55 SW 7 16.09 Fair CLR 0 0 0% 76.05 0.0
31 13:35 SW 7 16.09 Fair CLR 0 0 0% 76.05 0.0
31 13:15 W 7 16.09 Fair CLR 0 0 0% 76.05 0.0
31 12:55 Calm 16.09 Fair CLR 0 0 0% 76.05 0.0
31 12:35 Calm 16.09 Fair CLR 0 0 0% 76.05 0.0
31 12:15 Calm 16.09 Fair CLR 0 0 0% 76.05 0.0
31 11:55 W 6 16.09 Fair CLR 0 0 0% 76.02 0.0
31 11:35 NW 9 16.09 Fair CLR 0 0 0% 76.02 0.0
31 11:15 NW 7 16.09 Fair CLR 0 0 0% 76.02 0.0
31 10:55 W 9 16.09 Fair CLR 0 0 0% 76 0.0
31 10:35 NW 11 16.09 Fair CLR 0 0 0% 75.97 0.0
31 10:15 W 15 16.09 Fair CLR 25.1 21.1 79% 26 75.97 0.0
31 09:55 NW 9 16.09 Fair CLR 0 0 0% 75.97 0.0
31 09:35 Calm 16.09 Fair CLR 0 0 0% 75.95 0.0
31 09:15 Calm 16.09 Fair CLR 0 0 0% 75.95 0.0
31 08:55 NW 6 16.09 Fair CLR 0 0 0% 75.92 0.0
31 08:35 NW 15 16.09 Fair CLR 0 0 0% 75.95 0.0
31 08:15 W 17 16.09 Fair CLR 0 0 0% 75.95 0.0
31 07:55 W 9 16.09 Fair CLR 0 0 0% 75.95 0.0
31 07:35 S 6 16.09 Fair CLR 0 0 0% 75.95 0.0
31 07:15 Calm 16.09 Fair CLR 0 0 0% 75.92 0.0
31 06:55 Calm 16.09 Fair CLR 0 0 0% 75.87 0.0
31 06:35 Calm 11.27 Fair CLR 0 0 0% 75.84 0.0
31 06:15 Calm 16.09 Fair CLR 0 0 0% 75.82 0.0
31 05:55 Calm 16.09 Fair CLR 0 0 0% 75.82 0.0
31 05:35 Calm 16.09 Fair CLR 0 0 0% 75.79 0.0
31 05:15 Calm 16.09 Fair CLR 0 0 0% 75.79 0.0
31 04:55 Calm 16.09 Fair CLR 0 0 0% 75.77 0.0
31 04:35 Calm 16.09 Fair CLR 0 0 0% 75.77 0.0
31 04:15 NW 6 16.09 Fair CLR 0 0 0% 75.77 0.0
31 03:55 Calm 16.09 Fair CLR 0 0 0% 75.74 0.0
31 03:35 Calm 16.09 Fair CLR 0 0 0% 75.72 0.0
31 03:15 Calm 16.09 Fair CLR 0 0 0% 75.72 0.0
31 02:55 Calm 16.09 Fair CLR 0 0 0% 75.72 0.0
31 02:35 SE 6 16.09 Fair CLR 0 0 0% 75.72 0.0
31 02:15 SE 6 16.09 Fair CLR 0 0 0% 75.72 0.0
31 01:55 Calm 16.09 Fair CLR 0 0 0% 75.74 0.0
31 01:35 Calm 16.09 Fair CLR 0 0 0% 75.74 0.0
31 01:15 Calm 16.09 Fair CLR 0 0 0% 75.72 0.0
31 00:55 Calm 16.09 Fair CLR 0 0 0% 75.72 0.0
31 00:35 Calm 16.09 Fair CLR 0 0 0% 75.72 0.0
31 00:15 NW 6 16.09 Fair CLR 0 0 0% 75.69 0.0
30 23:55 Calm 16.09 Fair CLR 0 0 0% 75.69 0.0
30 23:35 Calm 16.09 Fair CLR 0 0 0% 75.69 0.0
30 23:15 Calm 16.09 Fair CLR 0 0 0% 75.69 0.0
30 22:55 Calm 16.09 Fair CLR 0 0 0% 75.72 0.0
30 22:35 Calm 16.09 Fair CLR 0 0 0% 75.72 0.0
30 22:15 Calm 16.09 Fair CLR 0 0 0% 75.72 0.0
30 21:55 Calm 16.09 Fair CLR 0 0 0% 75.72 0.0
30 21:35 Calm 16.09 Fair CLR 0 0 0% 75.72 0.0
30 21:15 Calm 16.09 Fair CLR 0 0 0% 75.72 0.0
30 20:55 Calm 16.09 Fair CLR 0 0 0% 75.69 0.0
30 20:35 Calm 16.09 Fair CLR 0 0 0% 75.69 0.0
30 20:15 Calm 16.09 Fair CLR 0 0 0% 75.69 0.0
30 19:55 Calm 16.09 Fair CLR 0 0 0% 75.67 0.0
30 19:35 Calm 16.09 Fair CLR 0 0 0% 75.67 0.0
30 19:15 Calm 16.09 Fair CLR 0 0 0% 75.67 0.0
30 18:55 Calm 16.09 Fair CLR 0 0 0% 75.67 0.0
30 18:35 SW 7 16.09 Fair CLR 0 0 0% 75.67 0.0
30 18:15 SW 7 16.09 Fair CLR 0 0 0% 75.67 0.0
30 17:55 W 9 16.09 Fair CLR 0 0 0% 75.64 0.0
30 17:35 S 6 16.09 Fair CLR 0 0 0% 75.64 0.0
30 17:15 S 7 16.09 Fair CLR 0 0 0% 75.64 0.0
30 16:55 SW 13 16.09 Fair CLR 0 0 0% 75.64 0.0
30 16:35 SW 6 16.09 Fair CLR 0 0 0% 75.64 0.0
30 16:15 SW 7 16.09 Fair CLR 0 0 0% 75.64 0.0
30 15:55 S 6 16.09 Fair CLR 0 0 0% 75.67 0.0
30 15:35 SW 9 16.09 Fair CLR 0 0 0% 75.69 0.0
30 15:15 SW 7 16.09 Fair CLR 0 0 0% 75.69 0.0
30 14:55 SW 11 16.09 Fair CLR 0 0 0% 75.69 0.0
30 14:35 SW 9 16.09 Fair CLR 0 0 0% 75.72 0.0
30 14:15 S 9 16.09 Fair CLR 0 0 0% 75.72 0.0
30 13:55 S 11 16.09 Fair CLR 0 0 0% 75.69 0.0
30 13:35 SW 9 16.09 Fair CLR 0 0 0% 75.72 0.0
30 13:15 SW 11 16.09 Fair CLR 0 0 0% 75.72 0.0
30 12:55 SW 13 G 26 16.09 Fair CLR 0 0 0% 75.74 0.0
30 12:35 S 13 G 30 16.09 Fair CLR 0 0 0% 75.77 0.0
30 12:15 S 17 G 28 16.09 Fair CLR 0 0 0% 75.77 0.0
30 11:55 S 15 16.09 Fair CLR 0 0 0% 75.74 0.0
30 11:35 SW 13 G 28 16.09 Fair CLR 0 0 0% 75.74 0.0
30 11:15 S 13 16.09 Fair CLR 0 0 0% 75.74 0.0
30 10:55 S 15 16.09 Fair CLR 0 0 0% 75.74 0.0
30 10:35 S 19 16.09 Fair CLR 0 0 0% 75.74 0.0
30 10:15 SE 11 16.09 Fair CLR 0 0 0% 75.74 0.0
30 09:55 SE 13 16.09 Thunderstorm in Vicinity CLR 0 0 0% 75.74 0.0
30 09:35 Calm 16.09 Fair CLR 0 0 0% 75.74 0.0
30 09:15 SE 7 16.09 Fair CLR 0 0 0% 75.72 0.0
30 08:35 SE 7 16.09 Fair CLR 0 0 0% 75.74 0.0
30 08:15 Calm 16.09 Thunderstorm in Vicinity SCT120 0 0 0% 75.74 0.0
30 07:55 SE 6 16.09 Partly Cloudy SCT050 SCT060 SCT070 0 0 0% 75.74 0.0
30 07:15 SE 15 16.09 Thunderstorm in Vicinity SCT120 0 0 0% 75.72 0.0
30 06:55 Calm 16.09 Fair CLR 0 0 0% 75.74 0.0
30 06:35 SE 13 16.09 Fair CLR 0 0 0% 75.72 0.0
30 06:15 Calm 16.09 Fair CLR 0 0 0% 75.77 0.0
30 05:55 Calm 16.09 Partly Cloudy SCT120 0 0 0% 75.77 0.0
30 05:35 Calm 16.09 Fair CLR 0 0 0% 75.77 0.0
30 05:15 S 6 16.09 Fair CLR 0 0 0% 75.77 0.0
30 04:55 Calm 16.09 Thunderstorm in Vicinity SCT110 0 0 0% 75.79 0.0
30 04:35 Calm 16.09 Mostly Cloudy BKN110 0 0 0% 75.77 0.0
30 04:15 S 6 16.09 Fair CLR 0 0 0% 75.74 0.0
30 03:55 S 6 16.09 Fair CLR 0 0 0% 75.72 0.0
30 03:35 Calm 16.09 Fair CLR 24.9 18.4 67% 26 75.74 0.0
30 03:15 Calm 16.09 Fair CLR 0 0 0% 75.74 0.0
30 02:55 SE 6 16.09 Fair CLR 0 0 0% 75.72 0.0
30 02:35 SE 7 16.09 Fair CLR 0 0 0% 75.72 0.0
30 02:15 SE 6 16.09 Fair CLR 0 0 0% 75.72 0.0
30 01:55 SE 7 16.09 Fair CLR 0 0 0% 75.72 0.0
30 01:35 SE 7 16.09 Fair CLR 0 0 0% 75.74 0.0
30 01:15 SE 11 16.09 Fair CLR 0 0 0% 75.74 0.0
30 00:55 S 9 16.09 Fair CLR 0 0 0% 75.74 0.0
30 00:35 SE 11 16.09 Fair CLR 0 0 0% 75.74 0.0
30 00:15 S 11 16.09 Fair CLR 0 0 0% 75.72 0.0
29 23:55 S 11 16.09 Fair CLR 0 0 0% 75.72 0.0
29 23:35 S 15 16.09 Fair CLR 0 0 0% 75.72 0.0
29 23:15 S 9 16.09 Fair CLR 0 0 0% 75.72 0.0
29 22:55 S 13 16.09 Fair CLR 0 0 0% 75.72 0.0
29 22:35 S 17 16.09 Fair CLR 0 0 0% 75.72 0.0
29 22:15 S 13 16.09 Fair CLR 0 0 0% 75.69 0.0
29 21:55 S 13 16.09 Fair CLR 0 0 0% 75.69 0.0
29 21:35 S 13 16.09 Fair CLR 0 0 0% 75.69 0.0
29 21:15 S 11 16.09 Fair CLR 0 0 0% 75.67 0.0
29 20:55 SE 13 16.09 Fair CLR 0 0 0% 75.64 0.0
29 20:35 SE 9 16.09 Fair CLR 0 0 0% 75.64 0.0
29 20:15 SE 11 16.09 Fair CLR 0 0 0% 75.62 0.0
29 19:55 SE 11 16.09 Fair CLR 0 0 0% 75.64 0.0
29 19:35 SE 9 16.09 Fair CLR 0 0 0% 75.64 0.0
29 19:15 SE 13 16.09 Fair CLR 0 0 0% 75.64 0.0
29 18:55 SE 11 16.09 Fair CLR 0 0 0% 75.64 0.0
29 18:35 S 7 16.09 Fair CLR 0 0 0% 75.67 0.0
29 18:15 S 9 16.09 Fair CLR 0 0 0% 75.67 0.0
29 17:55 S 11 16.09 Fair CLR 0 0 0% 75.67 0.0
29 17:35 S 20 G 30 16.09 Fair CLR 0 0 0% 75.67 0.0
29 17:15 S 20 16.09 Fair CLR 0 0 0% 75.67 0.0
29 16:55 S 19 G 28 16.09 Fair CLR 0 0 0% 75.67 0.0
29 16:15 S 19 G 30 16.09 Fair CLR 0 0 0% 75.72 0.0
29 15:55 SE 11 16.09 Fair CLR 0 0 0% 75.72 0.0
29 15:35 S 6 16.09 Fair CLR 0 0 0% 75.77 0.0
29 15:15 SE 7 16.09 Partly Cloudy SCT060 SCT080 SCT100 0 0 0% 75.77 0.0
29 14:55 S 15 16.09 Partly Cloudy SCT110 0 0 0% 75.79 0.0
29 14:35 SE 11 16.09 Partly Cloudy SCT050 SCT080 SCT100 0 0 0% 75.82 0.0
Date Time (cdt) Wind (kph) Vis. (km) Weather Sky Cond. Air Dwpt Max. Min. Relative Humidity Wind Chill (°C) Heat Index (°C) altimeter (cm) sea level (mb) 1 hr 3 hr 6 hr
6 hour
Temperature (ºC) Pressure Precipitation (cm)